SL-16 DEB, 22344

Orbit data source: Space-Track

SL-16 DEB, 22344 is space debris in LEO originally from a launch on Fri, 25 Dec 1992 UTC launched from the Tyuratam Missile And Space Complex (TTMTR). Debris objects in space refer to the collection of defunct objects orbiting the Earth. Examples of debris include non-operational satellites, rocket bodies, and fragments generated from explosions, collisions, or faulty payload assembly.

Loading next visibility...
Identifier
22344, 1992-093AH
Orbit
LEO
Country
Flag of CISCIS
Related business
Manufacturer
Unknown
Mission
Spacecraft
Bus & Motor
Unknown
Mass
Unknown
Launch date (UTC)
1992-12-25 (33 years ago)
Launch vehicle
Unknown
Launch site
Tyuratam Missile And Space Complex (TTMTR)
Object type
Payload
Rocket body
Debris
Shape & HBR
Unknown shape, 0.1 m
Radar Cross Section
Small (<0.1 m²)

Expand to show TLE details & history
Last TLE update: 9 hours ago

TLE from 9 hours ago
0 SL-16 DEB
1 22344U 92093AH  26037.05444343  .00001712  00000-0  91391-3 0  9990
2 22344  71.0924  76.1482 0095133  10.6713 349.6396 14.12360821690730
Epoch: 2026-02-06T01:18Z
TLE epoch observation values (Epoch: 2026-02-06T01:18:23.912Z)
Latitude
-0.00007°
Longitude
-79.64928°
Altitude
786.065 km
Speed
7.496 km/s
True Right ascension
05h 04m 35s
True Declination
0° 00' 00"
Sunlit
Object was in daylight at epoch
Visualization orbit readout
Latitude
Unknown
Longitude
Unknown
Altitude
Unknown
Speed
Unknown
Apparent Right ascension
Unknown
Apparent Declination
Unknown
Sunlit
N/A
Visualization observer readout
Local Sidereal Time
12:06:52
Azimuth
Unknown
Elevation
Unknown
Doppler factor
Unknown
Orbital elements
Apogee altitude
917.978 km
Perigee altitude
780.466 km
Semi-major axis
7,227.359 km
Eccentricity
0.00951
Inclination
71.0924°
RAAN
76.1482°
Arg. of periapsis
10.6713°
True anomaly
349.44123°
Mean anomaly
349.6396°
Eccentric anomaly
349.54065°
Mean motion
3.53243 °/min
Orbital period
101.91 mins
BSTAR
0.00091391
Loading maneuver chart data...
Computing Atmospheric mass density...
Loading historical data...
Loading historical data...
Loading historical data...
Loading historical data...
Loading historical data...
Loading historical data...
Loading historical data...

Documentation

Showing up to 5 results
|